sat.trackr.live / text

‹ back to catalog

STARLINK-4340

NORAD 53494 · 2022-099AF

PAYLOAD ACTIVE UNKNOWN

§ Identity

Operator
Country
US
Launch date
2022-08-12
Launch site
AFWTR
Launch vehicle
Mass (kg)
RCS (m²)

Purposes: comms

External: N2YO · Heavens-Above · Gunter

§ Orbital elements

Epoch: 2026-05-25T01:23:13.208064Z

Period
95.64 min
Inclination
97.4462°
Eccentricity
0.0003203
Mean motion
15.05647622 rev/d
Perigee alt
547.3 km
Apogee alt
551.7 km
Semi-major
6,927.7 km
B*
1.1401e-4
RAAN
266.1611°
Arg perigee
124.6651°
Mean anomaly
235.4878°
Rev number
20,754

§ Raw data

STARLINK-43401 53494U 22099AF  26145.05779176  .00001587  00000+0  11401-3 0  99972 53494  97.4462 266.1611 0003203 124.6651 235.4878 15.05647622207548

JSON: /api/v1/satellites/53494 · /tle

For live sub-satellite position, see the globe view (requires WebGL).

§ Visibility from observer

Set your observer location to see the next 7 days of passes ≥ 10°. The values pass through the URL so the page stays shareable.

No JS? Fill the form by hand. The geolocation button needs JavaScript.